Wetterdaten: Sonntag, 20.10.2013
Datum Zeit Temperatur Luftfeuchte Luftdruck Regen Wind Richtung Richtung Taupunkt Windchill Windben
20.10.2013 00:00 6,7 C 80 % 1019,9 hPa 0,0 l/m 0,0 km/h (0 Bft) S-SO 157 3,5 C 7,1 C 0,0 km/h (0 Bft)
20.10.2013 00:05 6,8 C 80 % 1020,1 hPa 0,0 l/m 0,0 km/h (0 Bft) S 180 3,6 C 7,1 C 0,0 km/h (0 Bft)
20.10.2013 00:10 6,5 C 80 % 1020,1 hPa 0,0 l/m 0,0 km/h (0 Bft) SO 135 3,3 C 7,0 C 0,0 km/h (0 Bft)
20.10.2013 00:15 6,7 C 82 % 1020,1 hPa 0,0 l/m 0,0 km/h (0 Bft) S 180 3,8 C 6,9 C 0,0 km/h (0 Bft)
20.10.2013 00:20 6,6 C 82 % 1020,1 hPa 0,0 l/m 0,0 km/h (0 Bft) S-SW 202 3,8 C 7,1 C 0,0 km/h (0 Bft)
20.10.2013 00:25 7,0 C 82 % 1020,1 hPa 0,0 l/m 0,0 km/h (0 Bft) SO 135 4,1 C 7,2 C 0,0 km/h (0 Bft)
20.10.2013 00:30 7,0 C 82 % 1020,1 hPa 0,0 l/m 0,0 km/h (0 Bft) S 180 4,1 C 7,3 C 0,0 km/h (0 Bft)
20.10.2013 00:35 7,2 C 82 % 1020,1 hPa 0,0 l/m 0,0 km/h (0 Bft) SO 135 4,3 C 7,5 C 0,0 km/h (0 Bft)
20.10.2013 00:40 7,3 C 82 % 1020,1 hPa 0,0 l/m 0,0 km/h (0 Bft) SO 135 4,4 C 7,7 C 0,0 km/h (0 Bft)
20.10.2013 00:45 7,4 C 82 % 1020,0 hPa 0,0 l/m 0,0 km/h (0 Bft) S-SO 157 4,5 C 7,8 C 0,0 km/h (0 Bft)
20.10.2013 00:50 7,4 C 82 % 1020,0 hPa 0,0 l/m 0,0 km/h (0 Bft) O-SO 112 4,5 C 7,9 C 0,0 km/h (0 Bft)
20.10.2013 00:55 7,5 C 82 % 1020,0 hPa 0,0 l/m 0,0 km/h (0 Bft) S-SW 202 4,6 C 8,0 C 0,0 km/h (0 Bft)
20.10.2013 01:00 7,6 C 82 % 1020,0 hPa 0,0 l/m 0,2 km/h (0 Bft) NO 45 4,7 C 8,2 C 0,0 km/h (0 Bft)
20.10.2013 01:05 7,9 C 82 % 1020,1 hPa 0,0 l/m 0,2 km/h (0 Bft) O 90 5,0 C 8,4 C 0,0 km/h (0 Bft)
20.10.2013 01:10 8,1 C 81 % 1020,1 hPa 0,0 l/m 0,2 km/h (0 Bft) S 180 5,0 C 8,5 C 0,0 km/h (0 Bft)
20.10.2013 01:15 8,1 C 81 % 1020,1 hPa 0,0 l/m 0,5 km/h (0 Bft) S 180 5,0 C 8,7 C 0,0 km/h (0 Bft)
20.10.2013 01:20 8,1 C 80 % 1020,1 hPa 0,0 l/m 0,5 km/h (0 Bft) S 180 4,9 C 8,8 C 0,0 km/h (0 Bft)
20.10.2013 01:25 8,1 C 80 % 1020,1 hPa 0,0 l/m 0,2 km/h (0 Bft) S-SO 157 4,9 C 9,0 C 1,9 km/h (1 Bft)
20.10.2013 01:30 8,2 C 80 % 1020,1 hPa 0,0 l/m 0,3 km/h (0 Bft) S 180 5,0 C 9,0 C 0,0 km/h (0 Bft)
20.10.2013 01:35 8,4 C 80 % 1020,1 hPa 0,0 l/m 0,2 km/h (0 Bft) O-SO 112 5,2 C 9,0 C 0,0 km/h (0 Bft)
20.10.2013 01:40 8,4 C 80 % 1020,1 hPa 0,0 l/m 0,0 km/h (0 Bft) S 180 5,2 C 9,0 C 0,0 km/h (0 Bft)
20.10.2013 01:45 8,6 C 79 % 1019,9 hPa 0,0 l/m 0,0 km/h (0 Bft) S 180 5,2 C 9,2 C 0,0 km/h (0 Bft)
20.10.2013 01:50 8,4 C 79 % 1019,9 hPa 0,0 l/m 0,0 km/h (0 Bft) O-SO 112 5,0 C 9,3 C 0,0 km/h (0 Bft)
20.10.2013 01:55 8,4 C 79 % 1019,9 hPa 0,0 l/m 0,0 km/h (0 Bft) O-SO 112 5,0 C 9,2 C 0,0 km/h (0 Bft)
20.10.2013 02:00 8,7 C 79 % 1019,9 hPa 0,0 l/m 0,0 km/h (0 Bft) O-SO 112 5,3 C 9,2 C 0,0 km/h (0 Bft)
20.10.2013 02:05 8,6 C 79 % 1020,1 hPa 0,0 l/m 0,0 km/h (0 Bft) S 180 5,2 C 9,3 C 0,0 km/h (0 Bft)
20.10.2013 02:10 8,6 C 79 % 1020,1 hPa 0,0 l/m 0,0 km/h (0 Bft) O-SO 112 5,2 C 9,3 C 0,0 km/h (0 Bft)
20.10.2013 02:15 8,8 C 79 % 1020,1 hPa 0,0 l/m 0,0 km/h (0 Bft) O-SO 112 5,4 C 9,3 C 0,0 km/h (0 Bft)
20.10.2013 02:20 8,7 C 79 % 1020,1 hPa 0,0 l/m 0,2 km/h (0 Bft) O-SO 112 5,3 C 9,2 C 0,0 km/h (0 Bft)
20.10.2013 02:25 8,7 C 78 % 1020,2 hPa 0,0 l/m 0,5 km/h (0 Bft) NO 45 5,1 C 9,3 C 0,0 km/h (0 Bft)
20.10.2013 02:30 8,5 C 78 % 1020,2 hPa 0,0 l/m 0,3 km/h (0 Bft) NO 45 4,9 C 9,3 C 0,0 km/h (0 Bft)
20.10.2013 02:35 8,7 C 78 % 1020,2 hPa 0,0 l/m 0,6 km/h (0 Bft) O-SO 112 5,1 C 9,2 C 1,8 km/h (1 Bft)
20.10.2013 02:40 9,1 C 78 % 1020,2 hPa 0,0 l/m 1,6 km/h (1 Bft) W-SW 247 5,5 C 9,2 C 4,2 km/h (1 Bft)
20.10.2013 02:45 8,7 C 78 % 1020,2 hPa 0,0 l/m 1,4 km/h (1 Bft) N-NO 22 5,1 C 9,2 C 0,0 km/h (0 Bft)
20.10.2013 02:50 8,7 C 79 % 1020,2 hPa 0,0 l/m 0,6 km/h (0 Bft) N-NO 22 5,3 C 9,2 C 5,5 km/h (1 Bft)
20.10.2013 02:55 8,7 C 79 % 1020,2 hPa 0,0 l/m 0,6 km/h (0 Bft) N-NO 22 5,3 C 9,2 C 0,0 km/h (0 Bft)
20.10.2013 03:00 8,8 C 79 % 1020,2 hPa 0,0 l/m 0,0 km/h (0 Bft) NO 45 5,4 C 9,2 C 0,0 km/h (0 Bft)
20.10.2013 03:05 8,8 C 79 % 1020,2 hPa 0,0 l/m 0,0 km/h (0 Bft) NO 45 5,4 C 9,3 C 0,0 km/h (0 Bft)
20.10.2013 03:10 8,7 C 79 % 1020,1 hPa 0,0 l/m 0,5 km/h (0 Bft) S-SO 157 5,3 C 9,4 C 0,0 km/h (0 Bft)
20.10.2013 03:15 8,6 C 79 % 1020,1 hPa 0,0 l/m 0,5 km/h (0 Bft) S 180 5,2 C 9,4 C 0,0 km/h (0 Bft)
20.10.2013 03:20 8,6 C 79 % 1020,1 hPa 0,0 l/m 0,3 km/h (0 Bft) S 180 5,2 C 9,3 C 0,0 km/h (0 Bft)
20.10.2013 03:25 8,8 C 79 % 1020,1 hPa 0,0 l/m 0,6 km/h (0 Bft) NO 45 5,4 C 9,3 C 0,0 km/h (0 Bft)
20.10.2013 03:30 8,5 C 79 % 1020,1 hPa 0,0 l/m 0,5 km/h (0 Bft) S-SO 157 5,1 C 9,3 C 0,0 km/h (0 Bft)
20.10.2013 03:35 8,3 C 79 % 1020,1 hPa 0,0 l/m 0,2 km/h (0 Bft) S-SO 157 4,9 C 9,1 C 0,0 km/h (0 Bft)
20.10.2013 03:40 8,3 C 80 % 1020,1 hPa 0,0 l/m 0,0 km/h (0 Bft) S-SO 157 5,1 C 9,0 C 0,0 km/h (0 Bft)
20.10.2013 03:45 8,8 C 80 % 1020,1 hPa 0,0 l/m 0,5 km/h (0 Bft) O-NO 67 5,5 C 9,0 C 1,8 km/h (1 Bft)
20.10.2013 03:50 8,6 C 79 % 1020,2 hPa 0,0 l/m 0,5 km/h (0 Bft) SO 135 5,2 C 9,1 C 0,0 km/h (0 Bft)
20.10.2013 03:53 8,5 C 79 % 1020,2 hPa 0,0 l/m 0,5 km/h (0 Bft) SO 135 5,1 C 9,1 C 0,0 km/h (0 Bft)
20.10.2013 03:55 8,5 C 79 % 1020,2 hPa 0,0 l/m 0,0 km/h (0 Bft) SO 135 5,1 C 9,0 C 0,0 km/h (0 Bft)
20.10.2013 04:00 8,5 C 79 % 1020,2 hPa 0,0 l/m 0,0 km/h (0 Bft) SO 135 5,1 C 9,0 C 0,0 km/h (0 Bft)
20.10.2013 04:05 8,3 C 79 % 1020,2 hPa 0,0 l/m 0,2 km/h (0 Bft) S 180 4,9 C 8,9 C 0,0 km/h (0 Bft)
20.10.2013 04:10 8,1 C 79 % 1020,2 hPa 0,0 l/m 0,2 km/h (0 Bft) SO 135 4,7 C 8,8 C 0,0 km/h (0 Bft)
20.10.2013 04:15 8,1 C 79 % 1020,2 hPa 0,0 l/m 0,0 km/h (0 Bft) O-SO 112 4,7 C 8,7 C 0,0 km/h (0 Bft)
20.10.2013 04:20 8,2 C 79 % 1020,2 hPa 0,0 l/m 0,2 km/h (0 Bft) S-SW 202 4,8 C 8,8 C 0,0 km/h (0 Bft)
20.10.2013 04:25 7,5 C 80 % 1020,1 hPa 0,0 l/m 0,5 km/h (0 Bft) S-SW 202 4,3 C 8,5 C 4,2 km/h (1 Bft)
20.10.2013 04:30 7,7 C 81 % 1020,1 hPa 0,0 l/m 1,0 km/h (0 Bft) S 180 4,7 C 8,3 C 0,0 km/h (0 Bft)
20.10.2013 04:35 7,6 C 81 % 1020,1 hPa 0,0 l/m 1,1 km/h (1 Bft) S-SO 157 4,6 C 8,1 C 0,0 km/h (0 Bft)
20.10.2013 04:40 7,6 C 81 % 1020,1 hPa 0,0 l/m 1,3 km/h (1 Bft) O 90 4,6 C 8,1 C 2,3 km/h (1 Bft)
20.10.2013 04:45 7,7 C 81 % 1020,1 hPa 0,0 l/m 1,0 km/h (0 Bft) O 90 4,7 C 8,1 C 0,0 km/h (0 Bft)
20.10.2013 04:50 7,4 C 81 % 1020,1 hPa 0,0 l/m 0,6 km/h (0 Bft) O 90 4,4 C 8,0 C 0,0 km/h (0 Bft)
20.10.2013 04:55 7,2 C 81 % 1020,1 hPa 0,0 l/m 0,0 km/h (0 Bft) O 90 4,2 C 7,8 C 0,0 km/h (0 Bft)
20.10.2013 05:00 7,1 C 81 % 1020,1 hPa 0,0 l/m 0,0 km/h (0 Bft) O 90 4,1 C 7,8 C 0,0 km/h (0 Bft)
20.10.2013 05:05 7,2 C 82 % 1020,2 hPa 0,0 l/m 0,0 km/h (0 Bft) O 90 4,3 C 7,8 C 0,0 km/h (0 Bft)
20.10.2013 05:10 7,2 C 82 % 1020,2 hPa 0,0 l/m 0,0 km/h (0 Bft) O 90 4,3 C 7,7 C 0,0 km/h (0 Bft)
20.10.2013 05:15 7,1 C 82 % 1020,2 hPa 0,0 l/m 0,0 km/h (0 Bft) SO 135 4,2 C 7,7 C 0,0 km/h (0 Bft)
20.10.2013 05:20 7,1 C 83 % 1020,2 hPa 0,0 l/m 0,0 km/h (0 Bft) O-SO 112 4,4 C 7,6 C 0,0 km/h (0 Bft)
20.10.2013 05:25 7,1 C 83 % 1020,2 hPa 0,0 l/m 0,2 km/h (0 Bft) O 90 4,4 C 7,5 C 0,0 km/h (0 Bft)
20.10.2013 05:30 7,1 C 83 % 1020,2 hPa 0,0 l/m 0,2 km/h (0 Bft) O 90 4,4 C 7,5 C 0,0 km/h (0 Bft)
20.10.2013 05:35 7,1 C 83 % 1020,2 hPa 0,0 l/m 0,0 km/h (0 Bft) O-NO 67 4,4 C 7,5 C 0,0 km/h (0 Bft)
20.10.2013 05:40 7,4 C 84 % 1020,2 hPa 0,0 l/m 0,2 km/h (0 Bft) SO 135 4,9 C 7,6 C 0,0 km/h (0 Bft)
20.10.2013 05:45 7,5 C 84 % 1020,2 hPa 0,0 l/m 0,2 km/h (0 Bft) S 180 5,0 C 7,8 C 0,0 km/h (0 Bft)
20.10.2013 05:50 7,7 C 84 % 1020,2 hPa 0,0 l/m 0,2 km/h (0 Bft) O-SO 112 5,2 C 8,0 C 0,0 km/h (0 Bft)
20.10.2013 05:55 7,5 C 83 % 1020,2 hPa 0,0 l/m 0,0 km/h (0 Bft) S 180 4,8 C 8,1 C 0,0 km/h (0 Bft)
20.10.2013 06:00 7,5 C 83 % 1020,2 hPa 0,0 l/m 0,0 km/h (0 Bft) O 90 4,8 C 8,2 C 0,0 km/h (0 Bft)
20.10.2013 06:05 7,6 C 83 % 1020,1 hPa 0,0 l/m 0,0 km/h (0 Bft) S 180 4,9 C 8,2 C 0,0 km/h (0 Bft)
20.10.2013 06:10 7,7 C 84 % 1020,1 hPa 0,0 l/m 0,2 km/h (0 Bft) O-NO 67 5,2 C 8,3 C 0,0 km/h (0 Bft)
20.10.2013 06:15 7,5 C 83 % 1020,1 hPa 0,0 l/m 0,2 km/h (0 Bft) S 180 4,8 C 8,4 C 0,0 km/h (0 Bft)
20.10.2013 06:20 7,8 C 84 % 1020,1 hPa 0,0 l/m 0,0 km/h (0 Bft) O 90 5,3 C 8,3 C 1,8 km/h (1 Bft)
20.10.2013 06:25 7,7 C 83 % 1020,1 hPa 0,0 l/m 0,2 km/h (0 Bft) S 180 5,0 C 8,4 C 0,0 km/h (0 Bft)
20.10.2013 06:30 7,6 C 83 % 1020,1 hPa 0,0 l/m 0,2 km/h (0 Bft) S 180 4,9 C 8,4 C 0,0 km/h (0 Bft)
20.10.2013 06:35 7,4 C 83 % 1020,1 hPa 0,0 l/m 0,0 km/h (0 Bft) O 90 4,7 C 8,3 C 0,0 km/h (0 Bft)
20.10.2013 06:40 7,4 C 84 % 1020,1 hPa 0,0 l/m 0,0 km/h (0 Bft) O 90 4,9 C 8,2 C 0,0 km/h (0 Bft)
20.10.2013 06:45 7,6 C 84 % 1019,9 hPa 0,0 l/m 0,0 km/h (0 Bft) O-NO 67 5,1 C 8,3 C 0,0 km/h (0 Bft)
20.10.2013 06:50 7,4 C 84 % 1019,9 hPa 0,0 l/m 0,0 km/h (0 Bft) O 90 4,9 C 8,3 C 0,0 km/h (0 Bft)
20.10.2013 06:55 7,3 C 84 % 1019,9 hPa 0,0 l/m 0,2 km/h (0 Bft) O 90 4,8 C 8,4 C 0,0 km/h (0 Bft)
20.10.2013 07:00 7,4 C 84 % 1019,9 hPa 0,0 l/m 0,2 km/h (0 Bft) O-SO 112 4,9 C 8,4 C 0,0 km/h (0 Bft)
20.10.2013 07:05 7,7 C 84 % 1019,8 hPa 0,0 l/m 0,2 km/h (0 Bft) S-SW 202 5,2 C 8,9 C 0,0 km/h (0 Bft)
20.10.2013 07:10 8,1 C 84 % 1019,8 hPa 0,0 l/m 0,3 km/h (0 Bft) N 360 5,6 C 9,3 C 0,0 km/h (0 Bft)
20.10.2013 07:15 8,2 C 84 % 1019,8 hPa 0,0 l/m 0,2 km/h (0 Bft) SW 225 5,7 C 9,5 C 0,0 km/h (0 Bft)
20.10.2013 07:20 8,3 C 83 % 1019,8 hPa 0,0 l/m 0,2 km/h (0 Bft) N-NO 22 5,6 C 9,5 C 1,8 km/h (1 Bft)
20.10.2013 07:25 8,4 C 83 % 1019,5 hPa 0,0 l/m 0,2 km/h (0 Bft) S 180 5,7 C 9,7 C 0,0 km/h (0 Bft)
20.10.2013 07:30 8,6 C 83 % 1019,5 hPa 0,0 l/m 0,3 km/h (0 Bft) O 90 5,9 C 9,9 C 1,8 km/h (1 Bft)
20.10.2013 07:35 8,9 C 82 % 1019,5 hPa 0,0 l/m 0,2 km/h (0 Bft) S 180 6,0 C 10,2 C 0,0 km/h (0 Bft)
20.10.2013 07:40 9,0 C 82 % 1019,5 hPa 0,0 l/m 0,2 km/h (0 Bft) S 180 6,1 C 10,3 C 0,0 km/h (0 Bft)
20.10.2013 07:45 9,3 C 82 % 1019,4 hPa 0,0 l/m 0,2 km/h (0 Bft) O-SO 112 6,4 C 10,5 C 2,3 km/h (1 Bft)
20.10.2013 07:50 9,4 C 81 % 1019,4 hPa 0,0 l/m 0,2 km/h (0 Bft) O-SO 112 6,3 C 10,5 C 2,3 km/h (1 Bft)
20.10.2013 07:55 9,4 C 81 % 1019,4 hPa 0,0 l/m 0,2 km/h (0 Bft) O-SO 112 6,3 C 10,5 C 2,3 km/h (1 Bft)
20.10.2013 08:00 9,7 C 80 % 1019,4 hPa 0,0 l/m 0,2 km/h (0 Bft) O-SO 112 6,4 C 10,5 C 2,3 km/h (1 Bft)
20.10.2013 08:05 9,7 C 80 % 1019,4 hPa 0,0 l/m 0,2 km/h (0 Bft) O-SO 112 6,4 C 10,5 C 2,3 km/h (1 Bft)
20.10.2013 08:10 9,6 C 79 % 1019,4 hPa 0,0 l/m 0,2 km/h (0 Bft) W-SW 247 6,1 C 10,8 C 0,0 km/h (0 Bft)
20.10.2013 08:15 9,5 C 79 % 1019,4 hPa 0,0 l/m 0,2 km/h (0 Bft) W-SW 247 6,0 C 10,8 C 0,0 km/h (0 Bft)
20.10.2013 08:20 9,6 C 79 % 1019,4 hPa 0,0 l/m 0,0 km/h (0 Bft) SW 225 6,1 C 10,6 C 0,0 km/h (0 Bft)
20.10.2013 08:25 9,5 C 79 % 1019,4 hPa 0,0 l/m 0,0 km/h (0 Bft) SW 225 6,0 C 10,5 C 0,0 km/h (0 Bft)
20.10.2013 08:30 9,5 C 79 % 1019,7 hPa 0,0 l/m 0,0 km/h (0 Bft) SW 225 6,0 C 10,5 C 0,0 km/h (0 Bft)
20.10.2013 08:35 9,4 C 79 % 1019,7 hPa 0,0 l/m 0,0 km/h (0 Bft) SW 225 5,9 C 10,5 C 0,0 km/h (0 Bft)
20.10.2013 08:40 9,4 C 79 % 1019,7 hPa 0,0 l/m 0,0 km/h (0 Bft) SW 225 5,9 C 10,5 C 0,0 km/h (0 Bft)
20.10.2013 08:45 9,4 C 79 % 1019,7 hPa 0,0 l/m 0,0 km/h (0 Bft) SW 225 5,9 C 10,5 C 0,0 km/h (0 Bft)
20.10.2013 08:50 9,3 C 79 % 1019,8 hPa 0,0 l/m 0,0 km/h (0 Bft) SW 225 5,8 C 10,5 C 0,0 km/h (0 Bft)
20.10.2013 08:53 9,3 C 79 % 1019,8 hPa 0,0 l/m 0,0 km/h (0 Bft) SW 225 5,8 C 10,5 C 0,0 km/h (0 Bft)
20.10.2013 08:55 9,4 C 80 % 1019,8 hPa 0,0 l/m 0,0 km/h (0 Bft) SW 225 6,1 C 10,5 C 0,0 km/h (0 Bft)
20.10.2013 09:00 9,6 C 80 % 1019,8 hPa 0,0 l/m 0,0 km/h (0 Bft) SW 225 6,3 C 10,5 C 0,0 km/h (0 Bft)
20.10.2013 09:05 9,8 C 80 % 1019,8 hPa 0,0 l/m 0,0 km/h (0 Bft) SW 225 6,5 C 10,5 C 0,0 km/h (0 Bft)
20.10.2013 09:10 10,0 C 79 % 1019,8 hPa 0,0 l/m 0,0 km/h (0 Bft) SW 225 6,5 C 10,5 C 0,0 km/h (0 Bft)
20.10.2013 09:15 10,3 C 79 % 1019,8 hPa 0,0 l/m 0,0 km/h (0 Bft) SW 225 6,8 C 10,5 C 0,0 km/h (0 Bft)
20.10.2013 09:20 10,5 C 79 % 1019,8 hPa 0,0 l/m 0,0 km/h (0 Bft) SW 225 7,0 C 10,5 C 0,0 km/h (0 Bft)
20.10.2013 09:25 10,7 C 79 % 1019,6 hPa 0,0 l/m 0,0 km/h (0 Bft) SW 225 7,2 C 10,5 C 0,0 km/h (0 Bft)
20.10.2013 09:30 10,7 C 79 % 1019,6 hPa 0,0 l/m 0,0 km/h (0 Bft) SW 225 7,2 C 10,5 C 0,0 km/h (0 Bft)
20.10.2013 09:35 10,7 C 79 % 1019,6 hPa 0,0 l/m 0,0 km/h (0 Bft) SW 225 7,2 C 10,5 C 0,0 km/h (0 Bft)
20.10.2013 09:40 11,0 C 78 % 1019,6 hPa 0,0 l/m 0,0 km/h (0 Bft) SW 225 7,3 C 10,5 C 0,0 km/h (0 Bft)
20.10.2013 09:45 11,1 C 78 % 1019,7 hPa 0,0 l/m 0,0 km/h (0 Bft) SW 225 7,4 C 10,5 C 0,0 km/h (0 Bft)
20.10.2013 09:50 11,2 C 78 % 1019,7 hPa 0,0 l/m 0,0 km/h (0 Bft) SW 225 7,5 C 10,5 C 0,0 km/h (0 Bft)
20.10.2013 09:55 11,5 C 77 % 1019,7 hPa 0,0 l/m 0,0 km/h (0 Bft) SW 225 7,6 C 10,5 C 0,0 km/h (0 Bft)
20.10.2013 10:00 11,7 C 76 % 1019,7 hPa 0,0 l/m 0,0 km/h (0 Bft) SW 225 7,6 C 10,5 C 0,0 km/h (0 Bft)
20.10.2013 10:05 12,0 C 75 % 1019,6 hPa 0,0 l/m 0,0 km/h (0 Bft) SW 225 7,7 C 10,5 C 0,0 km/h (0 Bft)
20.10.2013 10:10 12,2 C 75 % 1019,6 hPa 0,0 l/m 0,0 km/h (0 Bft) SW 225 7,9 C 10,5 C 0,0 km/h (0 Bft)
20.10.2013 10:15 12,4 C 75 % 1019,6 hPa 0,0 l/m 0,0 km/h (0 Bft) SW 225 8,1 C 10,5 C 0,0 km/h (0 Bft)
20.10.2013 10:20 12,9 C 74 % 1019,6 hPa 0,0 l/m 0,0 km/h (0 Bft) SW 225 8,4 C 10,5 C 0,0 km/h (0 Bft)
20.10.2013 10:25 13,2 C 71 % 1019,8 hPa 0,0 l/m 0,0 km/h (0 Bft) SW 225 8,1 C 10,5 C 0,0 km/h (0 Bft)
20.10.2013 10:30 13,4 C 70 % 1019,8 hPa 0,0 l/m 1,3 km/h (1 Bft) S-SW 202 8,0 C 15,8 C 0,0 km/h (0 Bft)
20.10.2013 10:35 13,9 C 70 % 1019,8 hPa 0,0 l/m 1,3 km/h (1 Bft) S-SW 202 8,5 C 15,8 C 0,0 km/h (0 Bft)
20.10.2013 10:40 14,1 C 70 % 1019,8 hPa 0,0 l/m 1,3 km/h (1 Bft) S-SW 202 8,7 C 15,8 C 0,0 km/h (0 Bft)
20.10.2013 10:45 14,4 C 70 % 1019,9 hPa 0,0 l/m 1,3 km/h (1 Bft) S-SW 202 9,0 C 15,8 C 0,0 km/h (0 Bft)
20.10.2013 10:50 14,6 C 70 % 1019,9 hPa 0,0 l/m 0,2 km/h (0 Bft) S-SW 202 9,2 C 17,7 C 0,0 km/h (0 Bft)
20.10.2013 10:55 15,1 C 68 % 1019,9 hPa 0,0 l/m 0,0 km/h (0 Bft) S-SW 202 9,2 C 19,9 C 0,0 km/h (0 Bft)
20.10.2013 11:00 15,3 C 67 % 1019,9 hPa 0,0 l/m 0,3 km/h (0 Bft) S 180 9,2 C 20,6 C 1,9 km/h (1 Bft)
20.10.2013 11:05 16,0 C 66 % 1020,6 hPa 0,0 l/m 1,1 km/h (1 Bft) S 180 9,7 C 22,8 C 0,0 km/h (0 Bft)
20.10.2013 11:10 16,3 C 64 % 1020,6 hPa 0,0 l/m 1,0 km/h (0 Bft) S 180 9,5 C 23,1 C 0,0 km/h (0 Bft)
20.10.2013 11:15 17,6 C 61 % 1020,6 hPa 0,0 l/m 0,2 km/h (0 Bft) S 180 10,0 C 24,8 C 0,0 km/h (0 Bft)
20.10.2013 11:20 18,4 C 58 % 1020,6 hPa 0,0 l/m 0,0 km/h (0 Bft) S 180 10,0 C 25,2 C 0,0 km/h (0 Bft)
20.10.2013 11:25 18,7 C 58 % 1020,7 hPa 0,0 l/m 0,0 km/h (0 Bft) S 180 10,3 C 26,2 C 0,0 km/h (0 Bft)
20.10.2013 11:30 18,5 C 58 % 1020,7 hPa 0,0 l/m 0,0 km/h (0 Bft) W 270 10,1 C 26,5 C 0,0 km/h (0 Bft)
20.10.2013 11:35 18,2 C 58 % 1020,7 hPa 0,0 l/m 0,5 km/h (0 Bft) W-NW 292 9,8 C 26,3 C 2,1 km/h (1 Bft)
20.10.2013 11:40 17,7 C 58 % 1020,7 hPa 0,0 l/m 0,8 km/h (0 Bft) W-NW 292 9,3 C 26,3 C 0,0 km/h (0 Bft)
20.10.2013 11:45 17,7 C 57 % 1020,6 hPa 0,0 l/m 1,8 km/h (1 Bft) N 360 9,1 C 25,9 C 2,6 km/h (1 Bft)
20.10.2013 11:50 17,5 C 58 % 1020,6 hPa 0,0 l/m 2,4 km/h (1 Bft) N-NW 337 9,1 C 25,7 C 2,9 km/h (1 Bft)
20.10.2013 11:55 18,5 C 58 % 1020,6 hPa 0,0 l/m 3,2 km/h (1 Bft) N 360 10,1 C 25,2 C 4,3 km/h (1 Bft)
20.10.2013 12:00 18,8 C 53 % 1020,6 hPa 0,0 l/m 4,2 km/h (1 Bft) NO 45 9,0 C 25,0 C 7,6 km/h (2 Bft)
20.10.2013 12:05 19,6 C 53 % 1020,8 hPa 0,0 l/m 3,9 km/h (1 Bft) NO 45 9,8 C 24,7 C 4,3 km/h (1 Bft)
20.10.2013 12:10 19,5 C 52 % 1020,8 hPa 0,0 l/m 3,5 km/h (1 Bft) N-NO 22 9,4 C 24,7 C 4,8 km/h (1 Bft)
20.10.2013 12:15 19,0 C 54 % 1020,8 hPa 0,0 l/m 3,2 km/h (1 Bft) N-NW 337 9,5 C 24,7 C 5,1 km/h (1 Bft)
20.10.2013 12:20 18,8 C 55 % 1020,8 hPa 0,0 l/m 3,7 km/h (1 Bft) N 360 9,6 C 24,7 C 4,0 km/h (1 Bft)
20.10.2013 12:25 18,6 C 56 % 1020,9 hPa 0,0 l/m 3,2 km/h (1 Bft) N-NW 337 9,6 C 25,0 C 6,3 km/h (2 Bft)
20.10.2013 12:30 18,6 C 55 % 1020,9 hPa 0,0 l/m 2,9 km/h (1 Bft) W-SW 247 9,4 C 25,1 C 3,2 km/h (1 Bft)
20.10.2013 12:35 18,7 C 55 % 1020,9 hPa 0,0 l/m 2,9 km/h (1 Bft) N 360 9,5 C 25,0 C 2,6 km/h (1 Bft)
20.10.2013 12:40 18,6 C 55 % 1020,9 hPa 0,0 l/m 2,7 km/h (1 Bft) NO 45 9,4 C 25,3 C 2,4 km/h (1 Bft)
20.10.2013 12:45 18,4 C 54 % 1021,1 hPa 0,0 l/m 3,2 km/h (1 Bft) N-NW 337 8,9 C 24,8 C 2,4 km/h (1 Bft)
20.10.2013 12:50 18,3 C 55 % 1021,1 hPa 0,0 l/m 3,7 km/h (1 Bft) N 360 9,1 C 24,6 C 4,3 km/h (1 Bft)
20.10.2013 12:55 18,4 C 56 % 1021,1 hPa 0,0 l/m 2,1 km/h (1 Bft) N-NW 337 9,5 C 25,0 C 1,9 km/h (1 Bft)
20.10.2013 13:00 18,5 C 56 % 1021,1 hPa 0,0 l/m 1,3 km/h (1 Bft) W-NW 292 9,6 C 25,6 C 2,9 km/h (1 Bft)
20.10.2013 13:05 18,4 C 56 % 1021,1 hPa 0,0 l/m 0,8 km/h (0 Bft) NO 45 9,5 C 25,9 C 1,9 km/h (1 Bft)
20.10.2013 13:10 18,4 C 56 % 1021,1 hPa 0,0 l/m 0,8 km/h (0 Bft) NO 45 9,5 C 25,9 C 1,9 km/h (1 Bft)
20.10.2013 13:15 18,4 C 55 % 1021,1 hPa 0,0 l/m 1,3 km/h (1 Bft) N-NW 337 9,2 C 26,3 C 3,2 km/h (1 Bft)
20.10.2013 13:20 18,5 C 56 % 1021,1 hPa 0,0 l/m 2,4 km/h (1 Bft) N 360 9,6 C 25,7 C 3,9 km/h (1 Bft)
20.10.2013 13:25 18,3 C 57 % 1021,1 hPa 0,0 l/m 1,9 km/h (1 Bft) W 270 9,6 C 25,4 C 2,3 km/h (1 Bft)
20.10.2013 13:30 18,7 C 56 % 1021,2 hPa 0,0 l/m 2,6 km/h (1 Bft) W-NW 292 9,7 C 25,2 C 4,8 km/h (1 Bft)
20.10.2013 13:35 18,7 C 57 % 1021,2 hPa 0,0 l/m 3,4 km/h (1 Bft) SW 225 10,0 C 25,1 C 4,5 km/h (1 Bft)
20.10.2013 13:40 18,8 C 56 % 1021,2 hPa 0,0 l/m 4,2 km/h (1 Bft) S-SW 202 9,8 C 24,9 C 9,2 km/h (2 Bft)
20.10.2013 13:45 19,2 C 56 % 1021,2 hPa 0,0 l/m 4,3 km/h (1 Bft) S 180 10,2 C 24,6 C 4,0 km/h (1 Bft)
20.10.2013 13:49 19,7 C 55 % 1021,4 hPa 0,0 l/m 3,5 km/h (1 Bft) SO 135 10,4 C 24,5 C 2,7 km/h (1 Bft)
20.10.2013 13:50 19,9 C 54 % 1021,4 hPa 0,0 l/m 3,7 km/h (1 Bft) SW 225 10,3 C 24,8 C 4,8 km/h (1 Bft)
20.10.2013 13:55 20,0 C 53 % 1021,4 hPa 0,0 l/m 5,0 km/h (1 Bft) W-SW 247 10,1 C 24,6 C 6,6 km/h (2 Bft)
20.10.2013 14:00 20,0 C 53 % 1021,4 hPa 0,0 l/m 5,1 km/h (1 Bft) S-SW 202 10,1 C 24,4 C 9,5 km/h (2 Bft)
20.10.2013 14:05 19,5 C 53 % 1021,4 hPa 0,0 l/m 4,7 km/h (1 Bft) S 180 9,7 C 24,1 C 4,7 km/h (1 Bft)
20.10.2013 14:10 19,1 C 55 % 1021,4 hPa 0,0 l/m 5,1 km/h (1 Bft) S-SO 157 9,8 C 23,9 C 5,6 km/h (1 Bft)
20.10.2013 14:15 19,2 C 56 % 1021,4 hPa 0,0 l/m 5,5 km/h (1 Bft) S 180 10,2 C 23,8 C 7,6 km/h (2 Bft)
20.10.2013 14:20 19,1 C 56 % 1021,4 hPa 0,0 l/m 5,1 km/h (1 Bft) W-SW 247 10,1 C 24,0 C 4,3 km/h (1 Bft)
20.10.2013 14:25 19,4 C 56 % 1021,3 hPa 0,0 l/m 5,5 km/h (1 Bft) W 270 10,4 C 23,9 C 5,8 km/h (2 Bft)
20.10.2013 14:30 19,5 C 55 % 1021,3 hPa 0,0 l/m 5,5 km/h (1 Bft) N 360 10,2 C 23,9 C 7,4 km/h (2 Bft)
20.10.2013 14:35 19,5 C 56 % 1021,3 hPa 0,0 l/m 5,1 km/h (1 Bft) SW 225 10,5 C 24,0 C 6,3 km/h (2 Bft)
20.10.2013 14:40 19,2 C 55 % 1021,3 hPa 0,0 l/m 5,8 km/h (2 Bft) S-SO 157 9,9 C 23,4 C 6,0 km/h (2 Bft)
20.10.2013 14:45 18,6 C 58 % 1021,3 hPa 0,0 l/m 6,1 km/h (2 Bft) S 180 10,2 C 22,4 C 6,8 km/h (2 Bft)
20.10.2013 14:50 18,5 C 58 % 1021,3 hPa 0,0 l/m 5,0 km/h (1 Bft) S 180 10,1 C 22,1 C 10,3 km/h (2 Bft)
20.10.2013 14:55 18,2 C 59 % 1021,3 hPa 0,0 l/m 4,5 km/h (1 Bft) S-SO 157 10,1 C 21,3 C 6,1 km/h (2 Bft)
20.10.2013 15:00 18,4 C 59 % 1021,3 hPa 0,0 l/m 5,3 km/h (1 Bft) S-SW 202 10,2 C 20,9 C 5,5 km/h (1 Bft)
20.10.2013 15:05 18,6 C 59 % 1021,4 hPa 0,0 l/m 5,3 km/h (1 Bft) S 180 10,4 C 20,5 C 6,4 km/h (2 Bft)
20.10.2013 15:10 18,6 C 59 % 1021,4 hPa 0,0 l/m 5,1 km/h (1 Bft) S 180 10,4 C 20,3 C 11,3 km/h (2 Bft)
20.10.2013 15:15 18,5 C 59 % 1021,4 hPa 0,0 l/m 5,1 km/h (1 Bft) SW 225 10,3 C 19,9 C 3,9 km/h (1 Bft)
20.10.2013 15:20 18,5 C 59 % 1021,4 hPa 0,0 l/m 5,0 km/h (1 Bft) W-SW 247 10,3 C 19,9 C 7,4 km/h (2 Bft)
20.10.2013 15:25 18,5 C 58 % 1021,6 hPa 0,0 l/m 5,0 km/h (1 Bft) S-SW 202 10,1 C 19,8 C 5,0 km/h (1 Bft)
20.10.2013 15:30 18,4 C 59 % 1021,6 hPa 0,0 l/m 5,1 km/h (1 Bft) S-SW 202 10,2 C 19,7 C 5,5 km/h (1 Bft)
20.10.2013 15:35 18,2 C 59 % 1021,6 hPa 0,0 l/m 5,5 km/h (1 Bft) W-SW 247 10,1 C 19,4 C 7,7 km/h (2 Bft)
20.10.2013 15:40 18,1 C 60 % 1021,6 hPa 0,0 l/m 5,5 km/h (1 Bft) S-SW 202 10,2 C 19,2 C 6,6 km/h (2 Bft)
20.10.2013 15:45 17,6 C 60 % 1021,2 hPa 0,0 l/m 5,8 km/h (2 Bft) W-SW 247 9,7 C 18,9 C 9,5 km/h (2 Bft)
20.10.2013 15:50 17,4 C 59 % 1021,2 hPa 0,0 l/m 6,4 km/h (2 Bft) S 180 9,3 C 18,5 C 11,6 km/h (2 Bft)
20.10.2013 15:55 17,2 C 59 % 1021,2 hPa 0,0 l/m 6,6 km/h (2 Bft) S 180 9,1 C 18,0 C 4,0 km/h (1 Bft)
20.10.2013 16:00 16,9 C 60 % 1021,2 hPa 0,0 l/m 5,8 km/h (2 Bft) SW 225 9,1 C 18,0 C 11,9 km/h (2 Bft)
20.10.2013 16:05 16,8 C 60 % 1021,1 hPa 0,0 l/m 5,1 km/h (1 Bft) S 180 9,0 C 17,7 C 5,1 km/h (1 Bft)
20.10.2013 16:10 16,6 C 61 % 1021,1 hPa 0,0 l/m 5,0 km/h (1 Bft) SW 225 9,0 C 17,6 C 4,8 km/h (1 Bft)
20.10.2013 16:15 16,3 C 63 % 1021,1 hPa 0,0 l/m 4,3 km/h (1 Bft) S 180 9,2 C 17,4 C 6,1 km/h (2 Bft)
20.10.2013 16:20 16,2 C 63 % 1021,1 hPa 0,0 l/m 3,9 km/h (1 Bft) N-NW 337 9,1 C 17,3 C 4,0 km/h (1 Bft)
20.10.2013 16:25 16,2 C 63 % 1021,0 hPa 0,0 l/m 4,3 km/h (1 Bft) S 180 9,1 C 17,1 C 6,4 km/h (2 Bft)
20.10.2013 16:30 16,0 C 64 % 1021,0 hPa 0,0 l/m 5,3 km/h (1 Bft) S 180 9,2 C 17,0 C 10,0 km/h (2 Bft)
20.10.2013 16:35 15,9 C 65 % 1021,0 hPa 0,0 l/m 7,1 km/h (2 Bft) SO 135 9,3 C 16,3 C 7,7 km/h (2 Bft)
20.10.2013 16:40 15,7 C 65 % 1021,0 hPa 0,0 l/m 7,4 km/h (2 Bft) S-SW 202 9,1 C 16,0 C 12,4 km/h (3 Bft)
20.10.2013 16:45 15,6 C 66 % 1021,2 hPa 0,0 l/m 7,2 km/h (2 Bft) S 180 9,3 C 15,9 C 7,7 km/h (2 Bft)
20.10.2013 16:50 15,5 C 67 % 1021,2 hPa 0,0 l/m 7,4 km/h (2 Bft) S-SW 202 9,4 C 15,7 C 6,9 km/h (2 Bft)
20.10.2013 16:55 15,2 C 67 % 1021,2 hPa 0,0 l/m 6,9 km/h (2 Bft) S-SO 157 9,1 C 15,7 C 4,2 km/h (1 Bft)
20.10.2013 17:00 15,0 C 68 % 1021,2 hPa 0,0 l/m 6,4 km/h (2 Bft) S-SO 157 9,1 C 15,8 C 7,7 km/h (2 Bft)
20.10.2013 17:05 14,7 C 69 % 1021,3 hPa 0,0 l/m 5,5 km/h (1 Bft) SO 135 9,1 C 15,6 C 5,1 km/h (1 Bft)
20.10.2013 17:10 14,6 C 69 % 1021,3 hPa 0,0 l/m 4,3 km/h (1 Bft) O-SO 112 9,0 C 15,6 C 1,9 km/h (1 Bft)
20.10.2013 17:15 14,5 C 70 % 1021,3 hPa 0,0 l/m 2,4 km/h (1 Bft) O-SO 112 9,1 C 15,4 C 3,1 km/h (1 Bft)
20.10.2013 17:20 14,4 C 70 % 1021,3 hPa 0,0 l/m 1,8 km/h (1 Bft) SO 135 9,0 C 15,2 C 5,5 km/h (1 Bft)
20.10.2013 17:25 14,2 C 71 % 1021,3 hPa 0,0 l/m 2,9 km/h (1 Bft) N 360 9,0 C 15,1 C 3,9 km/h (1 Bft)
20.10.2013 17:30 14,1 C 71 % 1021,3 hPa 0,0 l/m 3,1 km/h (1 Bft) S 180 8,9 C 15,1 C 3,1 km/h (1 Bft)
20.10.2013 17:35 14,0 C 71 % 1021,3 hPa 0,0 l/m 2,4 km/h (1 Bft) S 180 8,8 C 15,0 C 3,1 km/h (1 Bft)
20.10.2013 17:40 13,9 C 72 % 1021,3 hPa 0,0 l/m 2,4 km/h (1 Bft) S 180 8,9 C 14,9 C 2,4 km/h (1 Bft)
20.10.2013 17:45 13,8 C 73 % 1021,4 hPa 0,0 l/m 2,6 km/h (1 Bft) SO 135 9,0 C 14,8 C 2,1 km/h (1 Bft)
20.10.2013 17:50 13,7 C 73 % 1021,4 hPa 0,0 l/m 2,1 km/h (1 Bft) S 180 8,9 C 14,7 C 4,3 km/h (1 Bft)
20.10.2013 17:55 13,6 C 74 % 1021,4 hPa 0,0 l/m 1,9 km/h (1 Bft) O-SO 112 9,1 C 14,6 C 1,8 km/h (1 Bft)
20.10.2013 18:00 13,7 C 74 % 1021,4 hPa 0,0 l/m 1,6 km/h (1 Bft) S-SW 202 9,2 C 14,6 C 0,0 km/h (0 Bft)
20.10.2013 18:05 13,5 C 75 % 1021,6 hPa 0,0 l/m 1,0 km/h (0 Bft) S-SO 157 9,2 C 14,4 C 0,0 km/h (0 Bft)
20.10.2013 18:10 13,4 C 75 % 1021,6 hPa 0,0 l/m 1,3 km/h (1 Bft) O-SO 112 9,1 C 14,2 C 1,8 km/h (1 Bft)
20.10.2013 18:15 13,2 C 77 % 1021,6 hPa 0,0 l/m 1,8 km/h (1 Bft) S-SO 157 9,3 C 13,7 C 0,0 km/h (0 Bft)
20.10.2013 18:20 13,1 C 78 % 1021,6 hPa 0,0 l/m 2,3 km/h (1 Bft) S 180 9,4 C 13,4 C 6,9 km/h (2 Bft)
20.10.2013 18:25 13,0 C 80 % 1021,8 hPa 0,0 l/m 4,3 km/h (1 Bft) O-SO 112 9,6 C 13,0 C 5,0 km/h (1 Bft)
20.10.2013 18:30 13,0 C 80 % 1021,8 hPa 0,0 l/m 4,3 km/h (1 Bft) O-SO 112 9,6 C 13,0 C 5,0 km/h (1 Bft)
20.10.2013 18:35 12,9 C 82 % 1021,8 hPa 0,0 l/m 5,1 km/h (1 Bft) S 180 9,9 C 12,9 C 7,9 km/h (2 Bft)
20.10.2013 18:40 12,7 C 82 % 1021,8 hPa 0,0 l/m 4,2 km/h (1 Bft) S-SO 157 9,7 C 12,7 C 2,7 km/h (1 Bft)
20.10.2013 18:45 12,7 C 83 % 1021,8 hPa 0,0 l/m 4,2 km/h (1 Bft) S-SO 157 9,9 C 12,6 C 2,3 km/h (1 Bft)
20.10.2013 18:50 12,5 C 84 % 1021,8 hPa 0,0 l/m 4,0 km/h (1 Bft) O-NO 67 9,9 C 12,5 C 2,4 km/h (1 Bft)
20.10.2013 18:55 12,4 C 84 % 1021,8 hPa 0,0 l/m 2,9 km/h (1 Bft) O-SO 112 9,8 C 12,4 C 3,9 km/h (1 Bft)
20.10.2013 19:00 12,2 C 85 % 1021,8 hPa 0,0 l/m 1,0 km/h (0 Bft) O 90 9,8 C 12,3 C 2,1 km/h (1 Bft)
20.10.2013 19:05 12,2 C 84 % 1021,8 hPa 0,0 l/m 0,6 km/h (0 Bft) SO 135 9,6 C 12,2 C 2,4 km/h (1 Bft)
20.10.2013 19:10 12,1 C 85 % 1021,8 hPa 0,0 l/m 0,6 km/h (0 Bft) O-NO 67 9,7 C 12,2 C 0,0 km/h (0 Bft)
20.10.2013 19:15 12,1 C 86 % 1021,8 hPa 0,0 l/m 0,8 km/h (0 Bft) NO 45 9,8 C 12,2 C 0,0 km/h (0 Bft)
20.10.2013 19:20 12,0 C 86 % 1021,8 hPa 0,0 l/m 0,8 km/h (0 Bft) S-SW 202 9,7 C 12,1 C 1,6 km/h (1 Bft)
20.10.2013 19:25 11,9 C 86 % 1021,8 hPa 0,0 l/m 0,3 km/h (0 Bft) O 90 9,6 C 12,1 C 0,0 km/h (0 Bft)
20.10.2013 19:30 11,9 C 86 % 1021,8 hPa 0,0 l/m 0,8 km/h (0 Bft) O-SO 112 9,6 C 12,0 C 0,0 km/h (0 Bft)
20.10.2013 19:35 11,8 C 86 % 1021,8 hPa 0,0 l/m 0,8 km/h (0 Bft) O-NO 67 9,5 C 12,0 C 0,0 km/h (0 Bft)
20.10.2013 19:40 11,8 C 87 % 1021,8 hPa 0,0 l/m 0,3 km/h (0 Bft) NO 45 9,7 C 11,8 C 0,0 km/h (0 Bft)
20.10.2013 19:45 11,6 C 87 % 1021,8 hPa 0,0 l/m 0,5 km/h (0 Bft) NO 45 9,5 C 11,7 C 2,3 km/h (1 Bft)
20.10.2013 19:48 11,4 C 87 % 1021,5 hPa 0,0 l/m 0,5 km/h (0 Bft) NO 45 9,3 C 11,6 C 0,0 km/h (0 Bft)
20.10.2013 19:50 11,4 C 87 % 1021,5 hPa 0,0 l/m 0,3 km/h (0 Bft) O-NO 67 9,3 C 11,5 C 0,0 km/h (0 Bft)
20.10.2013 19:55 11,3 C 87 % 1021,5 hPa 0,0 l/m 0,5 km/h (0 Bft) O 90 9,2 C 11,4 C 2,3 km/h (1 Bft)
20.10.2013 20:00 11,3 C 87 % 1021,5 hPa 0,0 l/m 0,5 km/h (0 Bft) S 180 9,2 C 11,4 C 1,8 km/h (1 Bft)
20.10.2013 20:05 11,4 C 87 % 1021,3 hPa 0,0 l/m 0,6 km/h (0 Bft) NO 45 9,3 C 11,5 C 0,0 km/h (0 Bft)
20.10.2013 20:10 11,3 C 87 % 1021,3 hPa 0,0 l/m 0,5 km/h (0 Bft) S 180 9,2 C 11,5 C 0,0 km/h (0 Bft)
20.10.2013 20:15 11,4 C 88 % 1021,3 hPa 0,0 l/m 0,6 km/h (0 Bft) N-NO 22 9,5 C 11,5 C 2,9 km/h (1 Bft)
20.10.2013 20:20 11,5 C 88 % 1021,3 hPa 0,0 l/m 1,4 km/h (1 Bft) N-NW 337 9,6 C 11,6 C 0,0 km/h (0 Bft)
20.10.2013 20:25 11,3 C 87 % 1021,1 hPa 0,0 l/m 1,0 km/h (0 Bft) O 90 9,2 C 11,7 C 0,0 km/h (0 Bft)
20.10.2013 20:30 11,4 C 88 % 1021,1 hPa 0,0 l/m 0,0 km/h (0 Bft) O-NO 67 9,5 C 11,7 C 0,0 km/h (0 Bft)
20.10.2013 20:35 11,3 C 87 % 1021,1 hPa 0,0 l/m 0,0 km/h (0 Bft) O 90 9,2 C 11,6 C 0,0 km/h (0 Bft)
20.10.2013 20:40 11,4 C 87 % 1021,1 hPa 0,0 l/m 0,0 km/h (0 Bft) NO 45 9,3 C 11,6 C 0,0 km/h (0 Bft)
20.10.2013 20:45 11,1 C 87 % 1020,9 hPa 0,0 l/m 0,0 km/h (0 Bft) O 90 9,0 C 11,5 C 0,0 km/h (0 Bft)
20.10.2013 20:50 11,1 C 87 % 1020,9 hPa 0,0 l/m 0,0 km/h (0 Bft) O-SO 112 9,0 C 11,5 C 0,0 km/h (0 Bft)
20.10.2013 20:55 11,2 C 87 % 1020,9 hPa 0,0 l/m 0,0 km/h (0 Bft) O-SO 112 9,1 C 11,5 C 0,0 km/h (0 Bft)
20.10.2013 21:00 11,4 C 88 % 1020,9 hPa 0,0 l/m 0,2 km/h (0 Bft) NO 45 9,5 C 11,5 C 0,0 km/h (0 Bft)
20.10.2013 21:05 11,3 C 88 % 1021,2 hPa 0,0 l/m 0,2 km/h (0 Bft) NO 45 9,4 C 11,6 C 0,0 km/h (0 Bft)
20.10.2013 21:10 11,2 C 88 % 1021,2 hPa 0,0 l/m 0,0 km/h (0 Bft) NO 45 9,3 C 11,6 C 0,0 km/h (0 Bft)
20.10.2013 21:15 11,3 C 88 % 1021,2 hPa 0,0 l/m 0,0 km/h (0 Bft) O 90 9,4 C 11,6 C 0,0 km/h (0 Bft)
20.10.2013 21:20 11,4 C 88 % 1021,2 hPa 0,0 l/m 0,0 km/h (0 Bft) O-NO 67 9,5 C 11,6 C 0,0 km/h (0 Bft)
20.10.2013 21:25 11,6 C 88 % 1021,2 hPa 0,0 l/m 0,2 km/h (0 Bft) NO 45 9,7 C 11,7 C 0,0 km/h (0 Bft)
20.10.2013 21:30 11,6 C 88 % 1021,2 hPa 0,0 l/m 0,2 km/h (0 Bft) NO 45 9,7 C 11,7 C 0,0 km/h (0 Bft)
20.10.2013 21:35 11,3 C 87 % 1021,2 hPa 0,0 l/m 0,0 km/h (0 Bft) O 90 9,2 C 11,6 C 0,0 km/h (0 Bft)
20.10.2013 21:40 11,5 C 88 % 1021,2 hPa 0,0 l/m 0,0 km/h (0 Bft) O 90 9,6 C 11,7 C 0,0 km/h (0 Bft)
20.10.2013 21:45 11,3 C 87 % 1021,6 hPa 0,0 l/m 0,0 km/h (0 Bft) O 90 9,2 C 11,7 C 0,0 km/h (0 Bft)
20.10.2013 21:50 11,2 C 87 % 1021,6 hPa 0,0 l/m 0,0 km/h (0 Bft) O-SO 112 9,1 C 11,6 C 0,0 km/h (0 Bft)
20.10.2013 21:55 11,3 C 88 % 1021,6 hPa 0,0 l/m 0,0 km/h (0 Bft) O-SO 112 9,4 C 11,5 C 0,0 km/h (0 Bft)
20.10.2013 22:00 11,3 C 88 % 1021,6 hPa 0,0 l/m 0,0 km/h (0 Bft) O 90 9,4 C 11,5 C 0,0 km/h (0 Bft)
20.10.2013 22:05 10,9 C 88 % 1021,7 hPa 0,0 l/m 0,0 km/h (0 Bft) O-NO 67 9,0 C 11,4 C 0,0 km/h (0 Bft)
20.10.2013 22:10 10,8 C 88 % 1021,7 hPa 0,0 l/m 0,0 km/h (0 Bft) O 90 8,9 C 11,2 C 0,0 km/h (0 Bft)
20.10.2013 22:15 10,9 C 88 % 1021,7 hPa 0,0 l/m 0,0 km/h (0 Bft) O-NO 67 9,0 C 11,1 C 0,0 km/h (0 Bft)
20.10.2013 22:20 11,0 C 88 % 1021,7 hPa 0,0 l/m 0,0 km/h (0 Bft) O-NO 67 9,1 C 11,1 C 0,0 km/h (0 Bft)
20.10.2013 22:25 10,8 C 89 % 1021,8 hPa 0,0 l/m 0,0 km/h (0 Bft) NO 45 9,1 C 11,1 C 0,0 km/h (0 Bft)
20.10.2013 22:30 10,8 C 89 % 1021,8 hPa 0,0 l/m 0,0 km/h (0 Bft) O-SO 112 9,1 C 11,0 C 0,0 km/h (0 Bft)
20.10.2013 22:35 10,8 C 89 % 1021,8 hPa 0,0 l/m 0,0 km/h (0 Bft) O-SO 112 9,1 C 11,1 C 0,0 km/h (0 Bft)
20.10.2013 22:40 10,7 C 89 % 1021,8 hPa 0,0 l/m 0,0 km/h (0 Bft) O-SO 112 9,0 C 11,0 C 0,0 km/h (0 Bft)
20.10.2013 22:45 10,6 C 89 % 1021,9 hPa 0,0 l/m 0,0 km/h (0 Bft) O-SO 112 8,9 C 11,0 C 0,0 km/h (0 Bft)
20.10.2013 22:50 10,6 C 89 % 1021,9 hPa 0,0 l/m 0,0 km/h (0 Bft) O-SO 112 8,9 C 10,9 C 0,0 km/h (0 Bft)
20.10.2013 22:55 10,5 C 89 % 1021,9 hPa 0,0 l/m 0,0 km/h (0 Bft) NW 315 8,8 C 10,9 C 0,0 km/h (0 Bft)
20.10.2013 23:00 10,5 C 89 % 1021,9 hPa 0,0 l/m 0,0 km/h (0 Bft) S-SO 157 8,8 C 11,0 C 0,0 km/h (0 Bft)
20.10.2013 23:05 10,5 C 89 % 1021,6 hPa 0,0 l/m 0,0 km/h (0 Bft) S-SO 157 8,8 C 11,0 C 0,0 km/h (0 Bft)
20.10.2013 23:10 10,5 C 89 % 1021,6 hPa 0,0 l/m 0,0 km/h (0 Bft) S-SW 202 8,8 C 11,1 C 0,0 km/h (0 Bft)
20.10.2013 23:15 10,5 C 89 % 1021,6 hPa 0,0 l/m 0,0 km/h (0 Bft) W-SW 247 8,8 C 11,0 C 0,0 km/h (0 Bft)
20.10.2013 23:20 10,4 C 89 % 1021,6 hPa 0,0 l/m 0,0 km/h (0 Bft) W-SW 247 8,7 C 11,0 C 0,0 km/h (0 Bft)
20.10.2013 23:25 10,6 C 90 % 1021,7 hPa 0,0 l/m 0,0 km/h (0 Bft) S 180 9,0 C 10,9 C 0,0 km/h (0 Bft)
20.10.2013 23:30 10,5 C 90 % 1021,7 hPa 0,0 l/m 0,0 km/h (0 Bft) S 180 8,9 C 10,9 C 0,0 km/h (0 Bft)
20.10.2013 23:35 10,3 C 90 % 1021,7 hPa 0,0 l/m 0,0 km/h (0 Bft) SO 135 8,7 C 10,8 C 0,0 km/h (0 Bft)
20.10.2013 23:40 10,4 C 90 % 1021,7 hPa 0,0 l/m 0,0 km/h (0 Bft) S-SW 202 8,8 C 10,6 C 0,0 km/h (0 Bft)
20.10.2013 23:45 10,1 C 90 % 1021,8 hPa 0,0 l/m 0,0 km/h (0 Bft) S 180 8,5 C 10,4 C 0,0 km/h (0 Bft)
20.10.2013 23:50 10,1 C 90 % 1021,8 hPa 0,0 l/m 0,0 km/h (0 Bft) SO 135 8,5 C 10,2 C 0,0 km/h (0 Bft)
20.10.2013 23:55 10,0 C 90 % 1021,8 hPa 0,0 l/m 0,0 km/h (0 Bft) SO 135 8,4 C 10,1 C 0,0 km/h (0 Bft)
_ Min-Zeit 00:10 12:10 08:25 - 23:55 - - 00:10 00:15 23:55
Minimum _ 6,5 C 52 % 1019,4 hPa - 0,0 km/h (0 Bft) - - 3,3 C 6,9 C 0,0 km/h (0 Bft)
_ Max-Zeit 14:00 23:55 23:00 23:55 16:50 - - 14:35 11:30 16:40
Maximum _ 20,0 C 90 % 1021,9 hPa 0,0 l/m 7,4 km/h
S-SW (2 Bft)
- - 10,5 C 26,5 C 12,4 km/h
S-SW (3 Bft)
Durchschnitt _ 12,0 C 76 % 1020,7 hPa #0,0 l/m 1,4 km/h (1 Bft) S - 7,6 C 13,5 C 1,7 km/h (1 Bft)